Rbgn^[z[y[W
メイン
   新天体発見情報
     Comet C/2017 C2 (PANSTARRS)
投稿するにはまず登録を

スレッド表示 | 新しいものから 前のトピック | 次のトピック | 下へ
投稿者 スレッド
佐藤裕久
投稿日時: 2017-3-7 23:37
モデレータ
登録日: 2005-6-12
居住地: 日本
投稿: 2505
オンライン
Comet C/2017 C2 (PANSTARRS)

E. Lillyと R. Weryk (ハワイ大学天文学研究所)の通報によると、2月4日、Haleakalaにある1.8-m 
Pan-STARRS1望遠鏡で得たi-バンドCCD画像から彗星を発見した。
この天体は、ソフトな外観で半値全幅(FWHM)はおよそ1".7で、比較した隣接する恒星のFWHMは1".2
であった。明確な尾の根拠はないが、非対称形をしている。
小惑星センターのPCCP webpageに公表後、佐藤英貴氏(東京都文京区, iTelescope天文台,2月6.10日
UT, 0.51-m f/6.8 アストログラフ+輝度フィルター, Mayhill近郊, ニューメキシコ州、遠隔操作:
強い集光した6"のコマがあり、p.a. 120°に向かって8"の尾の気配がある。4".9の円形範囲で測定
したこの彗星のw-バンド光度は19.7等であった)らCCD位置観測者によって彗星状と観測された。

発見位置は次のとおり、

     2017 UT             R.A. (2000) Decl.       Mag.
     Feb.  4.25802    3 05 52.44   +58 09 23.9   19.6
           4.27204    3 05 52.40   +58 08 45.2   19.7
           4.28603    3 05 52.33   +58 08 06.3   19.7

楕円軌道要素と位置推算表は次のとおり、

Orbital elements:
    C/2017 C2 (PANSTARRS)
Epoch 2017 Jan. 7.0 TT = JDT 2457760.5
T 2017 Jan. 21.54937 TT                                 MPCW
q   2.4317494            (2000.0)            P               Q
z  +0.0085896      Peri.  138.74433     -0.03661285     +0.56516809
 +/-0.0016019      Node   249.80852     +0.51692203     +0.71652151
e   0.9791123      Incl.  118.58253     +0.85524916     -0.40887891
From 71 observations 2017 Feb. 4-18, mean residual 0".6.

    C/2017 C2 (PANSTARRS)
Epoch 2017 Feb. 16.0 TT = JDT 2457800.5
T 2017 Jan. 21.55289 TT                                 MPCW
q   2.4317501            (2000.0)            P               Q
z  +0.0085815      Peri.  138.74543     -0.03660060     +0.56517615
 +/-0.0016019      Node   249.80816     +0.51693817     +0.71650588
e   0.9791319      Incl.  118.58292     +0.85523992     -0.40889515
From 71 observations 2017 Feb. 4-18, mean residual 0".6.

Ephemeris:
    C/2017 C2 (PANSTARRS)
Date    TT    R. A. (2000) Decl.     Delta      r     Elong.  Phase   m1
2017 01 20    03 18 46.8 +71 06 22   1.8499  2.4318   114.7    21.6  19.2
...
2017 02 04    03 05 53.3 +58 21 18   2.0134  2.4362   103.2    23.2  19.4
...
2017 02 12    03 07 07.4 +52 35 35   2.1390  2.4430    95.7    23.7  19.5
...
2017 02 18    03 09 32.8 +48 47 49   2.2452  2.4501    89.8    23.8  19.6
2017 02 19    03 10 02.3 +48 12 23   2.2637  2.4514    88.8    23.8  19.7
2017 02 20    03 10 33.1 +47 37 40   2.2824  2.4529    87.8    23.8  19.7
...
2017 02 26    03 14 00.4 +44 23 34   2.3979  2.4623    81.9    23.5  19.8
...
2017 03 06    03 19 23.2 +40 39 27   2.5576  2.4774    74.1    22.7  20.0
...
2017 03 21    03 30 53.7 +35 05 53   2.8592  2.5135    60.0    20.1  20.3

(CBET 4362、MPEC 2017-D22)

スレッド表示 | 新しいものから 前のトピック | 次のトピック | トップ

投稿するにはまず登録を
 
© 1999 Tsutomu Seki.